Tracking 29493 objects as of 8-Sep-2024
HD Live streaming from Space Station
objects crossing your sky now

FENGYUN 1C DEB

Track FENGYUN 1C DEB now!
10-day predictions


NORAD ID: 35169
Int'l Code: 1999-025DMZ
Perigee: 604.0 km
Apogee: 838.4 km
Inclination: 99.2 °
Period: 99.1 minutes
Semi major axis: 7092 km
RCS: 0.0083 m2 (small)
Launch date: May 10, 1999
Source: People's Republic of China (PRC)
Launch site: Taiyaun Space Center, China (TSC)

Note: This is SATELLITE DEBRIS
Your satellite tracking list
Your tracking list is empty




NASA's NSSDC Master Catalog

Two Line Element Set (TLE):
1 35169U 99025DMZ 24242.75259340  .00008577  00000-0  17243-2 0  9994
2 35169  99.1904  74.0895 0165214  86.1901 275.8165 14.53553599589381
Source of the keplerian elements: AFSPC